Weather in Cameli

Turkey     37°04′41″N   29°20′49″E
temp.,
°C
wind,
m/s
gust,
m/s
humid.,
%
clouds,
%
prec.,
mm/h
press.,
hPa
HPBL,
m
20 june, sun
sun2000:00+16nne22660 0.0 101212
03:00+15ne33660 0.0 101127
06:00+14ne33710 0.0 101128
09:00+21ene11460 0.0 1010752
12:00+26sw333166 0.0 10092890
15:00+24sw433786 0.1 10092073
18:00+21sw234997 0.4 1010864
21:00+15ene3485100 1.8 1012103
21 june, mon
mon2100:00+14ene22781 0.1 101226
03:00+14ene22761 0.2 101118
06:00+13ene327625 0.1 101123
09:00+19nne115489 0.2 1011712
12:00+23wnw1241100 0.8 10102334
15:00+19sse236255 3.3 1011316
18:00+20sw336331 2.0 1011756
21:00+16sw22821 4.9 101315
22 june, tue
tue2200:00+15nne11800 0.0 101311
03:00+15ne22802 0.1 101317
06:00+14ne32800 0.0 101322
09:00+20nne11551 0.0 1012686
12:00+24wnw233315 0.0 10122410
15:00+25w453385 0.0 10112675
18:00+23wsw344543 0.4 10121253
21:00+20s015921 0.5 101315
23 june, wed
wed2300:00+18nne22580 0.0 101418
03:00+16ne33620 0.0 101430
06:00+15ne33670 0.0 101437
09:00+21nne45450 0.0 1014917
12:00+25ne45330 0.0 10141619
15:00+27nne44251 0.0 10132643
18:00+27nne442711 0.0 10132537
21:00+21nne22420 0.0 101516
24 june, thu
thu2400:00+19nne22440 0.0 101514
03:00+18ne33500 0.0 101520
06:00+17ne34600 0.0 101545
09:00+23ne45440 0.0 1015857
12:00+26ne45310 0.0 10141809
15:00+28nne55250 0.0 10132524
18:00+27nne442734 0.0 10122593
21:00+22n22415 0.0 101318